| time (UTC) | temp F | wind direction | speed knots | gust knots | rain 1hr in | rain 24hr in | rain mn in | humidity % | barometer mb |
| 20260502182022 | 59 | 0.0 | 0.0 | 0.00 | 0.00 | 0.00 | 46 | 1019.2 | |
| 20260502181521 | 59 | 0.0 | 0.0 | 0.00 | 0.00 | 0.00 | 48 | 1019.1 | |
| 20260502181019 | 59 | 0.0 | 0.0 | 0.00 | 0.00 | 0.00 | 49 | 1019.0 | |
| 20260502180517 | 59 | 242 | 0.0 | 0.9 | 0.00 | 0.00 | 0.00 | 49 | 1019.1 |
| 20260502170517 | 66 | 0.0 | 0.0 | 0.00 | 0.00 | 0.00 | 36 | 1018.7 | |
| 20260502164028 | 70 | 345 | 0.9 | 3.5 | 0.00 | 0.00 | 0.00 | 31 | 1018.7 |
| 20260502163547 | 71 | 354 | 2.6 | 5.2 | 0.00 | 0.00 | 0.00 | 30 | 1018.7 |
| 20260502163045 | 72 | 338 | 0.9 | 2.6 | 0.00 | 0.00 | 0.00 | 30 | 1018.6 |
| 20260502162523 | 73 | 354 | 0.9 | 1.7 | 0.00 | 0.00 | 0.00 | 28 | 1018.9 |
| 20260502162041 | 72 | 341 | 0.9 | 2.6 | 0.00 | 0.00 | 0.00 | 27 | 1018.8 |
| 20260502161519 | 73 | 343 | 0.9 | 3.5 | 0.00 | 0.00 | 0.00 | 27 | 1018.8 |
| 20260502161038 | 74 | 337 | 0.9 | 2.6 | 0.00 | 0.00 | 0.00 | 27 | 1018.8 |
| 20260502160516 | 74 | 321 | 0.9 | 3.5 | 0.00 | 0.00 | 0.00 | 27 | 1019.0 |
| 20260502151529 | 75 | 322 | 0.9 | 2.6 | 0.00 | 0.00 | 0.00 | 28 | 1019.3 |
| 20260502151108 | 76 | 320 | 0.9 | 3.5 | 0.00 | 0.00 | 0.00 | 27 | 1019.4 |
| 20260502150526 | 76 | 214 | 0.0 | 2.6 | 0.00 | 0.00 | 0.00 | 27 | 1019.4 |
| 20260502130521 | 73 | 195 | 0.9 | 2.6 | 0.00 | 0.00 | 0.00 | 28 | 1020.9 |
| 20260502123530 | 72 | 326 | 1.7 | 8.7 | 0.00 | 0.00 | 0.00 | 26 | 1021.2 |
| 20260502123048 | 72 | 289 | 1.7 | 9.6 | 0.00 | 0.00 | 0.00 | 27 | 1021.2 |
| 20260502122527 | 72 | 354 | 1.7 | 5.2 | 0.00 | 0.00 | 0.00 | 26 | 1021.2 |
| 20260502122025 | 71 | 24 | 0.9 | 3.5 | 0.00 | 0.00 | 0.00 | 25 | 1021.4 |
| 20260502121523 | 73 | 45 | 0.9 | 3.5 | 0.00 | 0.00 | 0.00 | 26 | 1021.4 |
| 20260502121022 | 70 | 334 | 0.9 | 3.5 | 0.00 | 0.00 | 0.00 | 26 | 1021.5 |
| 20260502120520 | 71 | 178 | 1.7 | 5.2 | 0.00 | 0.00 | 0.00 | 27 | 1021.5 |
| 20260502115516 | 70 | 240 | 0.9 | 3.5 | 0.00 | 0.00 | 0.00 | 27 | 1021.6 |
| 20260502115034 | 70 | 253 | 1.7 | 3.5 | 0.00 | 0.00 | 0.00 | 26 | 1021.7 |
| 20260502114533 | 70 | 214 | 0.9 | 2.6 | 0.00 | 0.00 | 0.00 | 26 | 1021.7 |
| 20260502114051 | 69 | 277 | 0.9 | 3.5 | 0.00 | 0.00 | 0.00 | 27 | 1021.7 |
| 20260502113529 | 69 | 349 | 0.9 | 3.5 | 0.00 | 0.00 | 0.00 | 27 | 1021.9 |
| 20260502113048 | 69 | 326 | 0.9 | 2.6 | 0.00 | 0.00 | 0.00 | 26 | 1021.9 |
| 20260502112546 | 69 | 333 | 1.7 | 3.5 | 0.00 | 0.00 | 0.00 | 28 | 1022.1 |
| 20260502112026 | 69 | 294 | 0.9 | 3.5 | 0.00 | 0.00 | 0.00 | 28 | 1022.0 |
| 20260502111522 | 68 | 81 | 0.0 | 1.7 | 0.00 | 0.00 | 0.00 | 27 | 1022.0 |
| 20260502111020 | 68 | 254 | 1.7 | 3.5 | 0.00 | 0.00 | 0.00 | 29 | 1022.2 |
| 20260502110519 | 68 | 175 | 0.9 | 2.6 | 0.00 | 0.00 | 0.00 | 32 | 1022.3 |
| 20260502110017 | 67 | 141 | 0.0 | 2.6 | 0.00 | 0.00 | 0.00 | 31 | 1022.4 |
| 20260502105535 | 67 | 286 | 0.9 | 3.5 | 0.00 | 0.00 | 0.00 | 32 | 1022.4 |
| 20260502105034 | 66 | 184 | 0.9 | 3.5 | 0.00 | 0.00 | 0.00 | 33 | 1022.6 |
| 20260502104552 | 66 | 157 | 0.9 | 2.6 | 0.00 | 0.00 | 0.00 | 33 | 1022.8 |
| 20260502104030 | 66 | 179 | 1.7 | 3.5 | 0.00 | 0.00 | 0.00 | 34 | 1022.9 |
| 20260502103530 | 66 | 179 | 1.7 | 5.2 | 0.00 | 0.00 | 0.00 | 33 | 1022.9 |
| 20260502103047 | 66 | 171 | 1.7 | 3.5 | 0.00 | 0.00 | 0.00 | 34 | 1023.0 |
| 20260502102525 | 65 | 169 | 1.7 | 3.5 | 0.00 | 0.00 | 0.00 | 36 | 1023.0 |
| 20260502102023 | 65 | 188 | 1.7 | 3.5 | 0.00 | 0.00 | 0.00 | 36 | 1023.3 |
| 20260502101021 | 63 | 192 | 0.9 | 3.5 | 0.00 | 0.00 | 0.00 | 35 | 1023.3 |
| 20260502100518 | 63 | 185 | 2.6 | 6.1 | 0.00 | 0.00 | 0.00 | 34 | 1023.4 |
| 20260502091520 | 58 | 176 | 0.9 | 1.7 | 0.00 | 0.00 | 0.00 | 36 | 1024.0 |
| 20260502091019 | 57 | 178 | 0.9 | 2.6 | 0.00 | 0.00 | 0.00 | 39 | 1024.0 |
| 20260502090517 | 56 | 175 | 0.9 | 1.7 | 0.00 | 0.00 | 0.00 | 39 | 1024.1 |
| 20260502071520 | 44 | 0.0 | 0.0 | 0.00 | 0.00 | 0.00 | 69 | 1025.1 | |
| 20260502071019 | 43 | 0.0 | 0.0 | 0.00 | 0.00 | 0.00 | 69 | 1025.2 | |
| 20260502070517 | 43 | 0.0 | 0.0 | 0.00 | 0.00 | 0.00 | 69 | 1025.2 | |
| 20260502070016 | 43 | 0.0 | 0.0 | 0.00 | 0.00 | 0.00 | 72 | 1025.3 | |
| 20260502065534 | 42 | 0.0 | 0.0 | 0.00 | 0.00 | 0.00 | 74 | 1025.4 | |
| 20260502065032 | 41 | 0.0 | 0.0 | 0.00 | 0.00 | 0.00 | 75 | 1025.4 | |
| 20260502064531 | 41 | 0.0 | 0.0 | 0.00 | 0.00 | 0.00 | 77 | 1025.4 | |
| 20260502064029 | 41 | 0.0 | 0.0 | 0.00 | 0.00 | 0.00 | 78 | 1025.5 | |
| 20260502063528 | 40 | 0.0 | 0.0 | 0.00 | 0.00 | 0.00 | 77 | 1025.5 | |
| 20260502063026 | 40 | 0.0 | 0.0 | 0.00 | 0.00 | 0.00 | 78 | 1025.6 | |
| 20260502062524 | 40 | 0.0 | 0.0 | 0.00 | 0.00 | 0.00 | 77 | 1025.5 | |
| 20260502062023 | 40 | 0.0 | 0.0 | 0.00 | 0.00 | 0.00 | 78 | 1025.7 | |
| 20260502061521 | 39 | 0.0 | 0.0 | 0.00 | 0.00 | 0.00 | 80 | 1025.7 | |
| 20260502061020 | 39 | 0.0 | 0.0 | 0.00 | 0.00 | 0.00 | 81 | 1025.8 | |
| 20260502060518 | 40 | 0.0 | 0.0 | 0.00 | 0.00 | 0.00 | 80 | 1025.7 | |
| 20260502060017 | 39 | 0.0 | 0.0 | 0.00 | 0.00 | 0.00 | 79 | 1025.7 | |
| 20260502055536 | 39 | 0.0 | 0.0 | 0.00 | 0.00 | 0.00 | 81 | 1025.8 | |
| 20260502055033 | 39 | 0.0 | 0.0 | 0.00 | 0.00 | 0.00 | 80 | 1025.9 | |
| 20260502054532 | 39 | 0.0 | 0.0 | 0.00 | 0.00 | 0.00 | 80 | 1025.8 | |
| 20260502054030 | 39 | 0.0 | 0.0 | 0.00 | 0.00 | 0.00 | 81 | 1025.7 | |
| 20260502053529 | 38 | 0.0 | 0.0 | 0.00 | 0.00 | 0.00 | 81 | 1025.8 | |
| 20260502053027 | 39 | 0.0 | 0.0 | 0.00 | 0.00 | 0.00 | 80 | 1025.8 | |
| 20260502052525 | 39 | 0.0 | 0.0 | 0.00 | 0.00 | 0.00 | 79 | 1025.8 | |
| 20260502052024 | 39 | 0.0 | 0.0 | 0.00 | 0.00 | 0.00 | 78 | 1025.9 | |
| 20260502051522 | 39 | 0.0 | 0.0 | 0.00 | 0.00 | 0.00 | 78 | 1025.9 | |
| 20260502051020 | 39 | 0.0 | 0.0 | 0.00 | 0.00 | 0.00 | 78 | 1025.9 | |
| 20260502050539 | 38 | 0.0 | 0.0 | 0.00 | 0.00 | 0.00 | 78 | 1025.8 | |
| 20260502050017 | 39 | 0.0 | 0.0 | 0.00 | 0.00 | 0.00 | 79 | 1025.8 | |
| 20260502045516 | 39 | 0.0 | 0.0 | 0.00 | 0.00 | 0.00 | 78 | 1025.8 | |
| 20260502045034 | 39 | 0.0 | 0.0 | 0.00 | 0.00 | 0.00 | 79 | 1025.8 | |
| 20260502044532 | 39 | 0.0 | 0.0 | 0.00 | 0.00 | 0.00 | 78 | 1025.8 | |
| 20260502044031 | 38 | 0.0 | 0.0 | 0.00 | 0.00 | 0.00 | 79 | 1025.9 | |
| 20260502043529 | 39 | 0.0 | 0.0 | 0.00 | 0.00 | 0.00 | 79 | 1025.8 | |
| 20260502043028 | 39 | 0.0 | 0.0 | 0.00 | 0.00 | 0.00 | 77 | 1025.6 | |
| 20260502042546 | 39 | 0.0 | 0.0 | 0.00 | 0.00 | 0.00 | 77 | 1025.6 | |
| 20260502042024 | 39 | 0.0 | 0.0 | 0.00 | 0.00 | 0.00 | 77 | 1025.6 | |
| 20260502041522 | 39 | 0.0 | 0.0 | 0.00 | 0.00 | 0.00 | 77 | 1025.7 | |
| 20260502041021 | 39 | 0.0 | 0.0 | 0.00 | 0.00 | 0.00 | 78 | 1025.7 | |
| 20260502040539 | 39 | 0.0 | 0.0 | 0.00 | 0.00 | 0.00 | 79 | 1025.7 | |
| 20260502040018 | 39 | 0.0 | 0.0 | 0.00 | 0.00 | 0.00 | 79 | 1025.7 | |
| 20260502035516 | 40 | 0.0 | 0.0 | 0.00 | 0.00 | 0.00 | 76 | 1025.6 | |
| 20260502035055 | 40 | 0.0 | 0.0 | 0.00 | 0.00 | 0.00 | 75 | 1025.6 | |
| 20260502034553 | 40 | 0.0 | 0.0 | 0.00 | 0.00 | 0.00 | 73 | 1025.5 | |
| 20260502034031 | 39 | 0.0 | 0.0 | 0.00 | 0.00 | 0.00 | 76 | 1025.6 | |
| 20260502033530 | 40 | 0.0 | 0.0 | 0.00 | 0.00 | 0.00 | 77 | 1025.7 | |
| 20260502033028 | 40 | 0.0 | 0.0 | 0.00 | 0.00 | 0.00 | 74 | 1025.5 | |
| 20260502032527 | 40 | 0.0 | 0.0 | 0.00 | 0.00 | 0.00 | 75 | 1025.6 | |
| 20260502032025 | 40 | 0.0 | 0.0 | 0.00 | 0.00 | 0.00 | 74 | 1025.6 | |
| 20260502031523 | 39 | 0.0 | 0.0 | 0.00 | 0.00 | 0.00 | 75 | 1025.5 | |
| 20260502031042 | 39 | 0.0 | 0.0 | 0.00 | 0.00 | 0.00 | 78 | 1025.6 | |
| 20260502030520 | 39 | 0.0 | 0.0 | 0.00 | 0.00 | 0.00 | 78 | 1025.6 | |
| 20260502030019 | 39 | 0.0 | 0.0 | 0.00 | 0.00 | 0.00 | 80 | 1025.6 | |
| 20260502025517 | 40 | 0.0 | 0.0 | 0.00 | 0.00 | 0.00 | 77 | 1025.7 | |
| 20260502025035 | 40 | 0.0 | 0.0 | 0.00 | 0.00 | 0.00 | 76 | 1025.7 | |
| 20260502024534 | 40 | 0.0 | 0.0 | 0.00 | 0.00 | 0.00 | 74 | 1025.8 | |
| 20260502024032 | 40 | 0.0 | 0.0 | 0.00 | 0.00 | 0.00 | 74 | 1025.7 | |
| 20260502023530 | 41 | 0.0 | 0.0 | 0.00 | 0.00 | 0.00 | 73 | 1025.8 | |
| 20260502023029 | 41 | 0.0 | 0.0 | 0.00 | 0.00 | 0.00 | 72 | 1025.8 | |
| 20260502022547 | 40 | 0.0 | 0.0 | 0.00 | 0.00 | 0.00 | 74 | 1025.9 | |
| 20260502022025 | 40 | 0.0 | 0.0 | 0.00 | 0.00 | 0.00 | 73 | 1025.9 | |
| 20260502021524 | 41 | 0.0 | 0.0 | 0.00 | 0.00 | 0.00 | 74 | 1025.9 | |
| 20260502021022 | 41 | 0.0 | 0.0 | 0.00 | 0.00 | 0.00 | 72 | 1025.9 | |
| 20260502020521 | 41 | 0.0 | 0.0 | 0.00 | 0.00 | 0.00 | 72 | 1025.9 | |
| 20260502020019 | 41 | 0.0 | 0.0 | 0.00 | 0.00 | 0.00 | 74 | 1026.0 | |
| 20260502015517 | 41 | 0.0 | 0.0 | 0.00 | 0.00 | 0.00 | 73 | 1025.9 | |
| 20260502015016 | 41 | 0.0 | 0.0 | 0.00 | 0.00 | 0.00 | 73 | 1026.0 | |
| 20260502014534 | 41 | 0.0 | 0.0 | 0.00 | 0.00 | 0.00 | 72 | 1026.0 | |
| 20260502014032 | 41 | 0.0 | 0.0 | 0.00 | 0.00 | 0.00 | 73 | 1025.9 | |
| 20260502013551 | 41 | 0.0 | 0.0 | 0.00 | 0.00 | 0.00 | 73 | 1026.0 | |
| 20260502013030 | 41 | 0.0 | 0.0 | 0.00 | 0.00 | 0.00 | 76 | 1026.1 | |
| 20260502012528 | 41 | 0.0 | 0.0 | 0.00 | 0.00 | 0.00 | 76 | 1026.0 | |
| 20260502012026 | 41 | 0.0 | 0.0 | 0.00 | 0.00 | 0.00 | 74 | 1026.2 | |
| 20260502011524 | 42 | 0.0 | 0.0 | 0.00 | 0.00 | 0.00 | 74 | 1026.2 | |
| 20260502011023 | 42 | 0.0 | 0.0 | 0.00 | 0.00 | 0.00 | 72 | 1026.1 | |
| 20260502010521 | 42 | 0.0 | 0.0 | 0.00 | 0.00 | 0.00 | 71 | 1026.1 | |
| 20260502010020 | 42 | 0.0 | 0.0 | 0.00 | 0.00 | 0.00 | 70 | 1026.1 | |
| 20260502005518 | 42 | 0.0 | 0.0 | 0.00 | 0.00 | 0.00 | 70 | 1026.2 | |
| 20260502005016 | 42 | 0.0 | 0.0 | 0.00 | 0.00 | 0.00 | 72 | 1026.1 | |
| 20260502004534 | 42 | 0.0 | 0.0 | 0.00 | 0.00 | 0.00 | 71 | 1026.2 | |
| 20260502004032 | 42 | 0.0 | 0.0 | 0.00 | 0.00 | 0.00 | 71 | 1026.3 | |
| 20260502003551 | 43 | 0.0 | 0.0 | 0.00 | 0.00 | 0.00 | 69 | 1026.3 | |
| 20260502003029 | 43 | 0.0 | 0.0 | 0.00 | 0.00 | 0.00 | 70 | 1026.2 | |
| 20260502002025 | 43 | 0.0 | 0.0 | 0.00 | 0.00 | 0.00 | 71 | 1026.3 | |
| 20260502001524 | 43 | 0.0 | 0.0 | 0.00 | 0.00 | 0.00 | 68 | 1026.3 | |
| 20260502001043 | 43 | 0.0 | 0.0 | 0.00 | 0.00 | 0.00 | 70 | 1026.4 | |
| 20260502000520 | 43 | 0.0 | 0.0 | 0.00 | 0.00 | 0.00 | 69 | 1026.3 | |
| 20260502000019 | 43 | 0.0 | 0.0 | 0.00 | 0.00 | 0.00 | 69 | 1026.3 | |
| 20260501235517 | 44 | 0.0 | 0.0 | 0.00 | 0.00 | 0.00 | 68 | 1026.3 | |
| 20260501235035 | 44 | 0.0 | 0.0 | 0.00 | 0.00 | 0.00 | 68 | 1026.3 | |
| 20260501234534 | 44 | 0.0 | 0.0 | 0.00 | 0.00 | 0.00 | 67 | 1026.4 | |
| 20260501234032 | 44 | 0.0 | 0.0 | 0.00 | 0.00 | 0.00 | 67 | 1026.3 | |
| 20260501233530 | 44 | 0.0 | 0.0 | 0.00 | 0.00 | 0.00 | 67 | 1026.3 | |
| 20260501233029 | 44 | 0.0 | 0.0 | 0.00 | 0.00 | 0.00 | 65 | 1026.4 | |
| 20260501232613 | 44 | 0.0 | 0.0 | 0.00 | 0.00 | 0.00 | 67 | 1026.3 | |
| 20260501232026 | 44 | 0.0 | 0.0 | 0.00 | 0.00 | 0.00 | 68 | 1026.3 | |
| 20260501231523 | 44 | 0.0 | 0.0 | 0.00 | 0.00 | 0.00 | 68 | 1026.3 | |
| 20260501231024 | 44 | 0.0 | 0.0 | 0.00 | 0.00 | 0.00 | 67 | 1026.4 | |
| 20260501230521 | 44 | 0.0 | 0.0 | 0.00 | 0.00 | 0.00 | 67 | 1026.4 | |
| 20260501230020 | 45 | 0.0 | 0.0 | 0.00 | 0.00 | 0.00 | 67 | 1026.4 | |
| 20260501225537 | 45 | 0.0 | 0.0 | 0.00 | 0.00 | 0.00 | 66 | 1026.3 | |
| 20260501225036 | 45 | 0.0 | 0.0 | 0.00 | 0.00 | 0.00 | 64 | 1026.4 | |
| 20260501224614 | 45 | 0.0 | 0.0 | 0.00 | 0.00 | 0.00 | 66 | 1026.5 | |
| 20260501224032 | 45 | 0.0 | 0.0 | 0.00 | 0.00 | 0.00 | 66 | 1026.4 | |
| 20260501223531 | 46 | 0.0 | 0.0 | 0.00 | 0.00 | 0.00 | 64 | 1026.4 | |
| 20260501223028 | 46 | 0.0 | 0.0 | 0.00 | 0.00 | 0.00 | 62 | 1026.4 | |
| 20260501222527 | 46 | 0.0 | 0.0 | 0.00 | 0.00 | 0.00 | 61 | 1026.4 | |
| 20260501222025 | 45 | 0.0 | 0.0 | 0.00 | 0.00 | 0.00 | 64 | 1026.5 | |
| 20260501221523 | 45 | 0.0 | 0.0 | 0.00 | 0.00 | 0.00 | 66 | 1026.5 | |
| 20260501221022 | 45 | 0.0 | 0.0 | 0.00 | 0.00 | 0.00 | 65 | 1026.4 | |
| 20260501220520 | 46 | 0.0 | 0.0 | 0.00 | 0.00 | 0.00 | 66 | 1026.4 | |
| 20260501220039 | 46 | 0.0 | 0.0 | 0.00 | 0.00 | 0.00 | 64 | 1026.3 | |
| 20260501215516 | 46 | 0.0 | 0.0 | 0.00 | 0.00 | 0.00 | 63 | 1026.3 | |
| 20260501215035 | 47 | 193 | 0.0 | 0.9 | 0.00 | 0.00 | 0.00 | 61 | 1026.3 |
| 20260501214615 | 47 | 243 | 0.0 | 0.9 | 0.00 | 0.00 | 0.00 | 61 | 1026.2 |
| 20260501214032 | 48 | 0.0 | 0.0 | 0.00 | 0.00 | 0.00 | 60 | 1026.2 | |
| 20260501213530 | 48 | 0.0 | 0.0 | 0.00 | 0.00 | 0.00 | 57 | 1026.1 | |
| 20260501213028 | 49 | 207 | 0.0 | 0.9 | 0.00 | 0.00 | 0.00 | 56 | 1026.2 |
| 20260501212527 | 49 | 253 | 0.0 | 1.7 | 0.00 | 0.00 | 0.00 | 54 | 1026.2 |
| 20260501212025 | 49 | 213 | 0.0 | 0.9 | 0.00 | 0.00 | 0.00 | 54 | 1026.2 |
| 20260501211523 | 49 | 0.0 | 0.0 | 0.00 | 0.00 | 0.00 | 56 | 1026.1 | |
| 20260501211021 | 49 | 0.0 | 0.0 | 0.00 | 0.00 | 0.00 | 55 | 1026.1 | |
| 20260501210520 | 49 | 190 | 0.0 | 1.7 | 0.00 | 0.00 | 0.00 | 55 | 1025.9 |
| 20260501210018 | 49 | 218 | 0.0 | 1.7 | 0.00 | 0.00 | 0.00 | 55 | 1026.0 |
| 20260501205516 | 50 | 167 | 0.0 | 0.9 | 0.00 | 0.00 | 0.00 | 56 | 1026.0 |
| 20260501205035 | 50 | 238 | 0.0 | 0.9 | 0.00 | 0.00 | 0.00 | 52 | 1025.8 |
| 20260501204553 | 50 | 219 | 0.0 | 1.7 | 0.00 | 0.00 | 0.00 | 52 | 1025.9 |
| 20260501204031 | 49 | 250 | 0.0 | 0.9 | 0.00 | 0.00 | 0.00 | 53 | 1025.8 |
| 20260501203610 | 49 | 0.0 | 0.0 | 0.00 | 0.00 | 0.00 | 58 | 1025.8 | |
| 20260501203028 | 49 | 0.0 | 0.0 | 0.00 | 0.00 | 0.00 | 59 | 1025.7 | |
| 20260501202526 | 50 | 300 | 0.0 | 1.7 | 0.00 | 0.00 | 0.00 | 56 | 1025.7 |
| 20260501202024 | 50 | 0.0 | 0.0 | 0.00 | 0.00 | 0.00 | 56 | 1025.7 | |
| 20260501201523 | 50 | 0.0 | 0.0 | 0.00 | 0.00 | 0.00 | 55 | 1025.6 | |
| 20260501201021 | 50 | 301 | 0.0 | 0.9 | 0.00 | 0.00 | 0.00 | 54 | 1025.5 |
| 20260501200519 | 51 | 222 | 0.0 | 0.9 | 0.00 | 0.00 | 0.00 | 53 | 1025.3 |
| 20260501200017 | 51 | 216 | 0.0 | 0.9 | 0.00 | 0.00 | 0.00 | 55 | 1025.2 |
| 20260501195516 | 51 | 0.0 | 0.0 | 0.00 | 0.00 | 0.00 | 55 | 1025.3 | |
| 20260501195034 | 52 | 0.0 | 0.0 | 0.00 | 0.00 | 0.00 | 52 | 1025.1 | |
| 20260501194533 | 53 | 153 | 0.0 | 0.9 | 0.00 | 0.00 | 0.00 | 50 | 1025.0 |
| 20260501194031 | 53 | 206 | 0.9 | 2.6 | 0.00 | 0.00 | 0.00 | 46 | 1025.0 |
| 20260501193529 | 54 | 269 | 0.0 | 1.7 | 0.00 | 0.00 | 0.00 | 46 | 1024.9 |
| 20260501193027 | 54 | 202 | 0.0 | 2.6 | 0.00 | 0.00 | 0.00 | 44 | 1024.9 |
| 20260501192526 | 55 | 232 | 0.0 | 1.7 | 0.00 | 0.00 | 0.00 | 44 | 1024.7 |
| 20260501192024 | 55 | 223 | 1.7 | 3.5 | 0.00 | 0.00 | 0.00 | 42 | 1024.6 |
| 20260501191523 | 55 | 237 | 1.7 | 3.5 | 0.00 | 0.00 | 0.00 | 42 | 1024.6 |
| 20260501191020 | 56 | 236 | 1.7 | 3.5 | 0.00 | 0.00 | 0.00 | 42 | 1024.7 |
| 20260501190519 | 56 | 241 | 1.7 | 3.5 | 0.00 | 0.00 | 0.00 | 41 | 1024.6 |
| 20260501190017 | 56 | 224 | 1.7 | 3.5 | 0.00 | 0.00 | 0.00 | 42 | 1024.5 |
| 20260501185535 | 56 | 251 | 1.7 | 5.2 | 0.00 | 0.00 | 0.00 | 42 | 1024.4 |
| 20260501185034 | 56 | 264 | 0.9 | 3.5 | 0.00 | 0.00 | 0.00 | 42 | 1024.4 |
| 20260501184532 | 56 | 267 | 0.9 | 2.6 | 0.00 | 0.00 | 0.00 | 42 | 1024.2 |
| 20260501184030 | 56 | 222 | 1.7 | 3.5 | 0.00 | 0.00 | 0.00 | 42 | 1024.1 |
| 20260501183528 | 56 | 218 | 1.7 | 3.5 | 0.00 | 0.00 | 0.00 | 42 | 1024.1 |
| 20260501183047 | 56 | 226 | 0.9 | 1.7 | 0.00 | 0.00 | 0.00 | 46 | 1024.0 |
| 20260501182525 | 56 | 225 | 0.0 | 1.7 | 0.00 | 0.00 | 0.00 | 43 | 1023.9 |
| 20260501182044 | 56 | 259 | 0.9 | 1.7 | 0.00 | 0.00 | 0.00 | 43 | 1023.7 |